Date String (YYYY-MM-DD hh:mm:ss) UTC,Instrument flags,absolute air pressure of the measurement (hPa),sample flow rate (lpm),inlet stack bypass flow (lpm),air temperature of the measurement (°C),ambient temperature measured by the external sensor (°C),aerosol sample conditioner tube jacket temperature (°C),OPC LED temperature (°C),internal box temperature (°C),relative humidity of the measurement (%),span deviation,mass concentration of particles derived from Lorenz-Mie calculation of OPC scattering (μg/m³),mass concentration of particles derived from Lorenz-Mie calculation of OPC scattering (μg/m³),mass concentration of particles derived from Lorenz-Mie calculation of OPC scattering (μg/m³)
DateTimeUTC,F1_M11,P_M11,Q1_M11,Q2_M11,T1_M11,T2_M11,T3_M11,T4_M11,T5_M11,U1_M11,ZSPAN_M11,X0_M11,X2_M11,X1_M11
2023-11-11 00:00:00,SystemResetWarning,0830.4,5.00,000.00,026.4,025.5,000.0,034.8,027.5,4.9,0000.0,0009.07,0003.87,0003.28
2023-11-11 00:01:00,SystemResetWarning,0830.4,5.00,000.00,026.3,025.5,000.0,034.8,027.5,4.9,0000.0,0008.82,0003.90,0003.28
2023-11-11 00:02:00,SystemResetWarning,0830.4,5.00,000.00,026.3,025.5,000.0,034.8,027.4,4.9,0000.0,0008.85,0003.91,0003.27
2023-11-11 00:03:00,SystemResetWarning,0830.4,5.00,000.00,026.3,025.5,000.0,034.8,027.5,5.0,0000.0,0008.68,0003.92,0003.27
2023-11-11 00:04:00,SystemResetWarning,0830.6,5.00,000.00,026.3,025.5,000.0,034.8,027.6,5.6,0000.0,0008.39,0003.96,0003.29
2023-11-11 00:05:00,SystemResetWarning,0830.7,5.00,000.00,026.3,025.5,000.0,034.8,027.7,6.6,0000.0,0008.11,0003.95,0003.29
2023-11-11 00:06:00,SystemResetWarning,0830.7,5.00,000.00,026.4,025.5,000.0,034.8,027.7,6.4,0000.0,0008.04,0003.94,0003.30
2023-11-11 00:07:00,SystemResetWarning,0830.5,5.00,000.00,026.4,025.5,000.0,034.7,027.7,6.0,0000.0,0008.01,0003.94,0003.30
2023-11-11 00:08:00,SystemResetWarning,0830.4,5.00,000.00,026.4,025.5,000.0,034.7,027.7,5.5,0000.0,0008.82,0003.95,0003.31
2023-11-11 00:09:00,SystemResetWarning,0830.4,4.99,000.00,026.4,025.5,000.0,034.7,027.8,5.8,0000.0,0009.18,0003.93,0003.30
2023-11-11 00:10:00,SystemResetWarning,0830.4,5.00,000.00,026.4,025.4,000.0,034.7,027.8,6.1,0000.0,0009.58,0003.94,0003.29
2023-11-11 00:11:00,SystemResetWarning,0830.4,5.01,000.00,026.4,025.4,000.0,034.7,027.8,6.4,0000.0,0009.37,0003.91,0003.27
2023-11-11 00:12:00,SystemResetWarning,0830.6,5.00,000.00,026.4,025.4,000.0,034.7,027.8,6.3,0000.0,0009.27,0003.89,0003.27
2023-11-11 00:13:00,SystemResetWarning,0830.7,5.00,000.00,026.4,025.4,000.0,034.7,027.8,6.3,0000.0,0009.26,0003.88,0003.27
2023-11-11 00:14:00,SystemResetWarning,0830.5,4.99,000.00,026.4,025.4,000.0,034.7,027.8,6.5,0000.0,0009.25,0003.84,0003.26
2023-11-11 00:15:00,SystemResetWarning,0830.5,4.99,000.00,026.4,025.4,000.0,034.7,027.8,6.7,0000.0,0009.25,0003.82,0003.23
2023-11-11 00:16:00,SystemResetWarning,0830.5,4.99,000.00,026.4,025.3,000.0,034.7,027.8,6.6,0000.0,0009.14,0003.82,0003.21
2023-11-11 00:17:00,SystemResetWarning,0830.6,5.00,000.00,026.4,025.3,000.0,034.7,027.8,6.7,0000.0,0009.14,0003.80,0003.19
2023-11-11 00:18:00,SystemResetWarning,0830.6,5.00,000.00,026.4,025.3,000.0,034.7,027.8,6.8,0000.0,0009.13,0003.77,0003.16
2023-11-11 00:19:00,SystemResetWarning,0830.6,5.01,000.00,026.4,025.3,000.0,034.7,027.8,6.7,0000.0,0008.88,0003.79,0003.14
2023-11-11 00:20:00,SystemResetWarning,0830.6,5.01,000.00,026.4,025.3,000.0,034.7,027.8,6.6,0000.0,0008.56,0003.76,0003.14
2023-11-11 00:21:00,SystemResetWarning,0830.6,5.01,000.00,026.4,025.3,000.0,034.7,027.8,6.1,0000.0,0008.04,0003.75,0003.14
2023-11-11 00:22:00,SystemResetWarning,0830.6,5.00,000.00,026.4,025.3,000.0,034.7,027.8,5.8,0000.0,0008.22,0003.76,0003.14
2023-11-11 00:23:00,SystemResetWarning,0830.6,5.00,000.00,026.4,025.3,000.0,034.7,027.8,5.8,0000.0,0008.27,0003.72,0003.13
2023-11-11 00:24:00,SystemResetWarning,0830.7,5.00,000.00,026.4,025.3,000.0,034.8,027.8,6.2,0000.0,0008.28,0003.69,0003.11
2023-11-11 00:25:00,SystemResetWarning,0830.7,5.00,000.00,026.4,025.2,000.0,034.7,027.8,6.7,0000.0,0008.19,0003.69,0003.11
2023-11-11 00:26:00,SystemResetWarning,0830.6,4.99,000.00,026.4,025.3,000.0,034.7,027.8,6.9,0000.0,0008.34,0003.70,0003.12
2023-11-11 00:27:00,SystemResetWarning,0830.7,5.01,000.00,026.4,025.3,000.0,034.7,027.8,7.0,0000.0,0008.41,0003.69,0003.12
2023-11-11 00:28:00,SystemResetWarning,0830.7,5.00,000.00,026.4,025.2,000.0,034.7,027.8,7.0,0000.0,0008.38,0003.68,0003.12
2023-11-11 00:29:00,SystemResetWarning,0830.7,5.00,000.00,026.4,025.2,000.0,034.7,027.8,7.1,0000.0,0008.44,0003.67,0003.11
2023-11-11 00:30:00,SystemResetWarning,0830.7,5.00,000.00,026.4,025.2,000.0,034.7,027.7,7.1,0000.0,0008.37,0003.67,0003.12
2023-11-11 00:31:00,SystemResetWarning,0830.7,5.00,000.00,026.4,025.2,000.0,034.7,027.7,7.1,0000.0,0008.36,0003.72,0003.12
2023-11-11 00:32:00,SystemResetWarning,0830.7,5.00,000.00,026.4,025.1,000.0,034.7,027.7,7.0,0000.0,0008.39,0003.72,0003.11
2023-11-11 00:33:00,SystemResetWarning,0830.7,5.00,000.00,026.3,025.1,000.0,034.7,027.7,7.0,0000.0,0008.28,0003.73,0003.10
2023-11-11 00:34:00,SystemResetWarning,0830.7,5.00,000.00,026.3,025.1,000.0,034.7,027.7,7.0,0000.0,0008.37,0003.77,0003.10
2023-11-11 00:35:00,SystemResetWarning,0830.7,5.00,000.00,026.3,025.1,000.0,034.7,027.7,7.1,0000.0,0008.70,0003.78,0003.11
2023-11-11 00:36:00,SystemResetWarning,0830.7,5.00,000.00,026.3,025.1,000.0,034.7,027.6,7.1,0000.0,0008.74,0003.79,0003.13
2023-11-11 00:37:00,SystemResetWarning,0830.7,5.01,000.00,026.3,025.1,000.0,034.7,027.6,7.1,0000.0,0008.55,0003.79,0003.13
2023-11-11 00:38:00,SystemResetWarning,0830.7,5.00,000.00,026.3,025.1,000.0,034.7,027.7,7.0,0000.0,0008.40,0003.79,0003.14
2023-11-11 00:39:00,SystemResetWarning,0830.7,5.00,000.00,026.3,025.1,000.0,034.7,027.7,7.0,0000.0,0008.48,0003.82,0003.16
2023-11-11 00:40:00,SystemResetWarning,0830.7,5.00,000.00,026.3,025.0,000.0,034.7,027.7,7.0,0000.0,0008.60,0003.86,0003.19
2023-11-11 00:41:00,SystemResetWarning,0830.7,5.00,000.00,026.2,025.0,000.0,034.7,027.6,7.0,0000.0,0008.59,0003.86,0003.20
2023-11-11 00:42:00,SystemResetWarning,0830.8,5.00,000.00,026.2,025.0,000.0,034.7,027.6,7.0,0000.0,0008.15,0003.86,0003.21
2023-11-11 00:43:00,SystemResetWarning,0830.8,5.00,000.00,026.2,025.0,000.0,034.6,027.6,7.1,0000.0,0008.26,0003.85,0003.21
2023-11-11 00:44:00,SystemResetWarning,0830.8,5.00,000.00,026.2,025.0,000.0,034.6,027.6,7.1,0000.0,0008.47,0003.86,0003.22
2023-11-11 00:45:00,SystemResetWarning,0830.8,5.00,000.00,026.2,025.0,000.0,034.6,027.6,7.1,0000.0,0008.46,0003.86,0003.23
2023-11-11 00:46:00,SystemResetWarning,0830.9,5.00,000.00,026.2,025.0,000.0,034.6,027.6,7.1,0000.0,0008.12,0003.88,0003.23
2023-11-11 00:47:00,SystemResetWarning,0830.8,5.00,000.00,026.2,025.0,000.0,034.6,027.6,7.0,0000.0,0008.34,0003.90,0003.23
2023-11-11 00:48:00,SystemResetWarning,0830.8,5.00,000.00,026.2,024.9,000.0,034.6,027.6,7.0,0000.0,0008.75,0003.91,0003.21
2023-11-11 00:49:00,SystemResetWarning,0830.9,5.01,000.00,026.2,024.9,000.0,034.6,027.6,7.1,0000.0,0008.79,0003.92,0003.20
2023-11-11 00:50:00,SystemResetWarning,0830.9,5.00,000.00,026.2,024.9,000.0,034.6,027.5,7.1,0000.0,0008.78,0003.90,0003.18
2023-11-11 00:51:00,SystemResetWarning,0830.9,5.00,000.00,026.2,024.9,000.0,034.6,027.5,7.1,0000.0,0008.86,0003.83,0003.16
2023-11-11 00:52:00,SystemResetWarning,0830.9,5.00,000.00,026.2,024.9,000.0,034.6,027.5,7.1,0000.0,0008.90,0003.84,0003.15
2023-11-11 00:53:00,SystemResetWarning,0830.9,5.00,000.00,026.1,024.8,000.0,034.6,027.5,7.1,0000.0,0008.90,0003.82,0003.14
2023-11-11 00:54:00,SystemResetWarning,0830.9,5.00,000.00,026.1,024.8,000.0,034.6,027.5,7.1,0000.0,0008.74,0003.85,0003.14
2023-11-11 00:55:00,SystemResetWarning,0830.9,5.00,000.00,026.1,024.8,000.0,034.6,027.5,7.0,0000.0,0008.95,0003.84,0003.15
2023-11-11 00:56:00,SystemResetWarning,0830.9,5.00,000.00,026.1,024.8,000.0,034.5,027.5,7.0,0000.0,0009.26,0003.77,0003.14
2023-11-11 00:57:00,SystemResetWarning,0830.9,5.00,000.00,026.1,024.8,000.0,034.5,027.5,6.9,0000.0,0009.87,0003.76,0003.13
2023-11-11 00:58:00,SystemResetWarning,0830.9,5.00,000.00,026.1,024.8,000.0,034.5,027.4,7.1,0000.0,0009.79,0003.75,0003.12
2023-11-11 00:59:00,SystemResetWarning,0830.9,5.00,000.00,026.1,024.8,000.0,034.5,027.5,7.0,0000.0,0009.37,0003.71,0003.11
